Regional Weather Roundup
Issued by NWS Cleveland, OH

Home | Current Version | Previous Version | Graphics & Text | Print | Product List | Glossary On
Versions: 1 2 3 4 5 6 7 8 9 10 11 12 13 14 15 16 17 18 19 20 21 22 23 24 25 26 27 28 29 30 31 32 33 34 35 36 37 38 39 40 41 42 43 44 45 46 47 48 49 50
000
ASUS41 KCLE 271600
RWRCLE
OHIO REGIONAL WEATHER ROUNDUP
NATIONAL WEATHER SERVICE WILMINGTON, OH
1200 PM EDT THU JUL 27 2017

NOTE: "FAIR" INDICATES FEW OR NO CLOUDS BELOW 12,000 FEET WITH NO
SIGNIFICANT WEATHER AND/OR OBSTRUCTIONS TO VISIBILITY.

OHZ001>008-015>018-024>027-034-035-043-044-271700-
   NORTHWEST OHIO

CITY           SKY/WX    TMP DP  RH WIND       PRES   REMARKS
DEFIANCE       PTSUNNY   78  69  73 VRB3      29.93S
FINDLAY        PTSUNNY   80  69  69 S10       29.92S
TOLEDO EXPRESS CLOUDY    77  68  73 E3        29.93S
TOLEDO EXEC    FAIR      82  69  64 E3        29.93F
LIMA           CLOUDY    76  70  82 SW6       29.94S
$$

OHZ009>014-019>023-028>033-038-089-271700-
   NORTHEAST OHIO

CITY           SKY/WX    TMP DP  RH WIND       PRES   REMARKS
CLE-HOPKINS    PTSUNNY   85  64  49 CALM      29.95F
CLE-LAKEFRONT  FAIR      81  62  52 NW6       29.93F
CUY CO. ARPT   MOSUNNY   82  64  54 W6          N/A
LORAIN-ELYRIA  FAIR      79  60  52 CALM      29.94F
ASHTABULA      FAIR      77  65  66 SW5       29.97F
AKRON-CANTON   PTSUNNY   80  62  54 SW7       29.96F
WOOSTER        NOT AVBL
MANSFIELD      PTSUNNY   79  67  66 S7        29.96F
YOUNGSTOWN     PTSUNNY   79  62  56 VRB3      29.97F
$$

OHZ042-051>053-060>062-070>072-077>081-271700-
  SOUTHWEST OHIO

CITY           SKY/WX    TMP DP  RH WIND       PRES   REMARKS
CINC-COVINGTON CLOUDY    79  76  90 W6        29.97S
CINC-LUNKEN    FAIR      80  76  87 W5        29.96S
HAMILTON       PTSUNNY   80  75  84 SW6       29.97S
DAYTON         NOT AVBL
WRIGHT-PAT AFB LGT RAIN  77  73  88 SW9       29.96R FOG
DAYTON GENERAL LGT RAIN  79  72  79 W6        29.97R
WILMINGTON     PTSUNNY   79  74  84 SW6       29.96S
$$

OHZ036-037-039>041-045>050-054>059-063>069-073>076-082>088-271700-
  CENTRAL AND SOUTHEAST OHIO

CITY           SKY/WX    TMP DP  RH WIND       PRES   REMARKS
COLUMBUS       CLOUDY    76  71  85 S3        29.95F
OSU AIRPORT    PTSUNNY   77  70  79 S7        29.93F
BOLTON FIELD   CLOUDY    73  72  94 CALM      29.95F
RICKENBACK AFB NOT AVBL
NEWARK         PTSUNNY   79  67  66 SW8       29.96R
MARION         PTSUNNY   79  68  69 S6        29.95F
LANCASTER      PTSUNNY   75  69  81 SW10G17   29.99R
ZANESVILLE     FAIR      82  68  62 VRB3      29.96S
NEW PHILLY     FAIR      79  67  66 S5        29.97F
$$




USA.gov is the U.S. government's official web portal to all federal, state and local government web resources and services.